Flag for Portugal Weather past 2 weeks in Beja, Portugal

Now
50 °F

Clear.


Feels Like: 48 °F
Forecast: 48 / 68 °F
Wind: 5 mph from Northwest

Location: Beja Airport

Current Time: Apr 20, 2015 at 2:25:06 AM

Latest Report: Apr 20, 2015 at 2:00 AM


Visibility: 10 mi

Pressure: 30.09 "Hg

Humidity: 88%

Dew point: 46 °F

Location of BejaLocation

Historic Weather in Beja — Graph

°F

Beja temperature yesterday

Maximum temperature yesterday: 68 °F (at 6:00 PM)
Minimum temperature yesterday: 45 °F (at 7:00 AM)
Average temperature yesterday: 56 °F

Past Weeks' High & Low Weather Summary

 TemperatureHumidityPressure
High75 °F (Apr 5, 3:00 PM)100% (Apr 6, 6:00 AM)30.24 "Hg (Apr 6, 6:00 AM)
Low45 °F (Apr 19, 7:00 AM)41% (Apr 13, 5:00 PM)29.77 "Hg (Apr 5, 6:00 AM)
Average59 °F81%30.06 "Hg
* Reported Apr 5 1:00 AM — Apr 20 1:00 AM, Beja, Weather by CustomWeather, © 2015

Note: Actual official high and low records may vary slightly from our data, if they occured in-between our weather recording intervals... More about our weather records

Advertising

Beja weather history for previous 24 hours

 ConditionsComfort  
Time TempWeatherWind HumidityBarometerVisibility
1:00 AM
Mon, Apr 20
52 °FClear.7 mph88%30.09 "Hg10 mi
12:00 AM52 °FClear.8 mph88%30.09 "Hg10 mi
11:00 PM
Sun, Apr 19
54 °FClear.9 mph88%30.09 "Hg10 mi
10:00 PM55 °FClear.10 mph82%30.07 "Hg10 mi
9:00 PM57 °FSunny.10 mph77%30.07 "Hg10 mi
8:00 PM63 °FPassing clouds.13 mph64%30.04 "HgN/A
7:00 PM66 °FPassing clouds.13 mph56%30.04 "HgN/A
6:00 PM68 °FScattered clouds.15 mph53%30.01 "HgN/A
5:00 PM66 °FScattered clouds.12 mph56%30.04 "HgN/A
4:00 PM66 °FScattered clouds.12 mph56%30.04 "HgN/A
3:00 PM64 °FScattered clouds.8 mph60%30.07 "HgN/A
2:00 PM63 °FScattered clouds.10 mph59%30.07 "HgN/A
1:00 PM61 °FScattered clouds.8 mph68%30.07 "HgN/A
12:00 PM59 °FScattered clouds.7 mph68%30.07 "HgN/A
11:00 AM57 °FScattered clouds.10 mph72%30.07 "HgN/A
10:00 AM55 °FFog.7 mph82%30.07 "HgN/A
9:00 AM52 °FClear.8 mph94%30.07 "HgN/A
8:00 AM46 °FSnow. Light fog.6 mph100%30.09 "HgN/A
7:00 AM45 °FSnow. Light fog.2 mph100%30.07 "HgN/A
6:00 AM46 °FPassing clouds.7 mph93%30.07 "HgN/A
5:00 AM46 °FPassing clouds.6 mph93%30.07 "HgN/A
4:00 AM48 °FPassing clouds.9 mph94%30.07 "HgN/A
3:00 AM48 °FPassing clouds.7 mph94%30.07 "HgN/A
2:00 AM50 °FClear.8 mph94%30.09 "Hg10 mi
Weather by CustomWeather, © 2015

See weather overviewHow to use our weather pages